DW6455 Orivesi FI current weather conditions

sailwx.info

Wind from 169 at 6 knots gusting 14

Air temperature 12.8° C
Dewpoint 11.0° C

Last reported at 2016-Sep-28 07:47 UTC.
Time now 2016-Sep-28 08:37 UTC

Location: N 61°39' E 024°21'.
View on Google Maps.

See reports from other nearby stations

  
Tides and Currents Weather Stations Pressure Air Temp Water Temp Dewpoint Dewpoint Depression Visibility Wind Speed Wind Dir Waves Ship Positions
date/time (UTC)wind fromknots sea level pressurealtimeterstation pressurevisibilityair tempwater tempwave heightnotes
2016-Sep-28 07:47 169 6 gusting 14 12.8
2016-Sep-28 07:42 174 6 gusting 14 12.8
2016-Sep-28 07:37 213 6 gusting 14 12.8
2016-Sep-28 07:32 151 6 gusting 14 12.8
2016-Sep-28 07:27 162 6 gusting 16 12.8
2016-Sep-28 07:22 132 6 gusting 16 12.8
2016-Sep-28 07:17 159 6 gusting 16 12.8
2016-Sep-28 07:12 138 7 gusting 19 12.8
2016-Sep-28 07:07 143 7 gusting 19 12.8
2016-Sep-28 07:02 143 7 gusting 19 12.8
2016-Sep-28 06:57 163 8 gusting 13 12.8
2016-Sep-28 06:52 157 7 gusting 13 12.8
2016-Sep-28 06:47 154 6 gusting 13 12.8
2016-Sep-28 06:42 178 6 gusting 13 12.8
2016-Sep-28 06:37 132 6 gusting 13 12.8
2016-Sep-28 06:32 136 6 gusting 13 12.2
2016-Sep-28 06:27 186 6 gusting 15 12.2
2016-Sep-28 06:22 128 4 gusting 15 12.2
2016-Sep-28 06:17 172 5 gusting 15 12.2
2016-Sep-28 06:12 186 5 gusting 15 12.2
2016-Sep-28 06:07 208 6 gusting 15 12.2
2016-Sep-28 06:02 165 6 gusting 15 12.2
2016-Sep-28 05:57 152 6 gusting 16 12.2
2016-Sep-28 05:52 135 6 gusting 16 12.2
2016-Sep-28 05:47 180 6 gusting 13 12.2
2016-Sep-28 05:42 143 5 gusting 13 11.7
2016-Sep-28 05:37 162 6 gusting 13 11.7
2016-Sep-28 05:32 156 6 gusting 13 11.7
2016-Sep-28 05:27 167 6 gusting 12 11.7
2016-Sep-28 05:22 175 5 gusting 12 11.7
2016-Sep-28 05:17 205 5 gusting 12 11.7
2016-Sep-28 05:12 121 6 gusting 16 11.7
2016-Sep-28 05:07 132 5 gusting 16 11.7
2016-Sep-28 05:02 200 5 gusting 16 11.7
2016-Sep-28 04:57 188 6 gusting 13 11.7
2016-Sep-28 04:52 124 6 gusting 13 11.7
2016-Sep-28 04:47 225 6 gusting 12 11.7
2016-Sep-28 04:42 195 6 gusting 12 11.7
2016-Sep-28 04:37 136 6 gusting 12 11.7
2016-Sep-28 04:32 146 5 gusting 13 11.7
2016-Sep-28 04:27 138 6 gusting 13 11.7
2016-Sep-28 04:22 147 6 gusting 13 11.7
2016-Sep-28 04:17 192 5 gusting 13 11.7
2016-Sep-28 04:12 145 5 gusting 13 11.7
2016-Sep-28 04:07 168 5 gusting 13 11.7
2016-Sep-28 04:02 197 5 gusting 13 11.7
2016-Sep-28 03:57 128 6 gusting 13 11.7
2016-Sep-28 03:52 165 6 gusting 13 11.7
2016-Sep-28 03:47 219 6 gusting 13 11.7
2016-Sep-28 03:42 144 6 gusting 13 11.7
2016-Sep-28 03:37 155 5 gusting 13 11.7
2016-Sep-28 03:32 142 5 gusting 13 11.7
2016-Sep-28 03:27 182 5 gusting 13 11.7
2016-Sep-28 03:22 125 4 gusting 13 11.7
2016-Sep-28 03:17 138 5 gusting 13 11.7
2016-Sep-28 03:12 153 6 gusting 13 11.7
2016-Sep-28 03:07 156 5 gusting 12 11.7
2016-Sep-28 03:02 154 5 gusting 12 11.7
2016-Sep-28 02:57 168 5 gusting 12 11.7
2016-Sep-28 02:52 167 5 gusting 12 11.7
2016-Sep-28 02:47 194 5 gusting 13 11.7
2016-Sep-28 02:42 147 4 gusting 13 11.7
2016-Sep-28 02:37 143 4 gusting 11 11.7
2016-Sep-28 02:32 139 5 gusting 11 11.7
2016-Sep-28 02:27 190 5 gusting 11 11.7
2016-Sep-28 02:22 144 5 gusting 11 11.7
2016-Sep-28 02:17 163 4 gusting 10 11.7
2016-Sep-28 02:12 140 4 gusting 10 11.7
2016-Sep-28 02:07 163 4 gusting 13 11.7
2016-Sep-28 02:02 204 4 gusting 13 11.7
2016-Sep-28 01:57 137 3 gusting 13 11.7
2016-Sep-28 01:52 134 2 gusting 12 11.7
2016-Sep-28 01:47 181 2 gusting 12 11.7
2016-Sep-28 01:42 154 3 gusting 12 11.7
2016-Sep-28 01:37 161 4 gusting 12 11.7
2016-Sep-28 01:32 173 3 gusting 13 11.7
2016-Sep-28 01:27 138 4 gusting 13 11.7
2016-Sep-28 01:22 165 3 gusting 13 11.7
2016-Sep-28 01:17 180 3 gusting 13 11.7
2016-Sep-28 01:12 194 4 gusting 13 11.7
2016-Sep-28 01:07 198 4 gusting 13 11.7
2016-Sep-28 01:02 174 4 gusting 13 11.7
2016-Sep-28 00:57 215 4 gusting 13 11.7
2016-Sep-28 00:52 152 4 gusting 11 11.7
2016-Sep-28 00:47 174 4 gusting 11 11.7
2016-Sep-28 00:42 196 4 gusting 12 11.7
2016-Sep-28 00:37 160 5 gusting 12 11.7
2016-Sep-28 00:32 135 5 gusting 8 11.7
2016-Sep-28 00:27 144 5 gusting 8 11.7
2016-Sep-28 00:22 136 4 gusting 8 11.7
2016-Sep-28 00:17 140 4 gusting 9 11.7
2016-Sep-28 00:12 153 4 gusting 9 11.7
2016-Sep-28 00:07 144 3 gusting 10 11.7
2016-Sep-28 00:02 152 3 gusting 10 11.7
2016-Sep-27 23:57 195 3 gusting 10 11.7
2016-Sep-27 23:52 118 4 gusting 10 11.7
2016-Sep-27 23:47 193 4 gusting 10 11.7
2016-Sep-27 23:42 184 3 gusting 10 11.7
2016-Sep-27 23:37 133 3 gusting 8 11.7
2016-Sep-27 23:32 144 3 gusting 8 11.7
2016-Sep-27 23:27 196 3 gusting 8 11.7
2016-Sep-27 23:22 198 3 gusting 8 11.7
2016-Sep-27 23:17 166 3 gusting 8 11.7
2016-Sep-27 23:12 147 2 gusting 7 11.7
2016-Sep-27 23:07 158 2 gusting 7 11.7
2016-Sep-27 23:02 153 1 gusting 7 11.7
2016-Sep-27 22:57 157 1 gusting 7 11.7
2016-Sep-27 22:52 188 1 gusting 7 11.7
2016-Sep-27 22:47 174 1 gusting 6 11.7
2016-Sep-27 22:42 192 1 gusting 6 11.1
2016-Sep-27 22:37 161 1 gusting 6 11.1
2016-Sep-27 22:32 217 1 gusting 4 11.1
2016-Sep-27 22:27 219 1 gusting 4 11.1
2016-Sep-27 22:22 168 0 gusting 4 11.1
2016-Sep-27 22:17 169 0 gusting 5 11.1
2016-Sep-27 22:12 191 1 gusting 5 11.1
2016-Sep-27 22:07 132 1 gusting 5 11.1
2016-Sep-27 22:02 196 1 gusting 5 11.1
2016-Sep-27 21:57 190 1 gusting 6 11.1
2016-Sep-27 21:52 186 1 gusting 6 11.1
2016-Sep-27 21:47 219 2 gusting 6 11.1
2016-Sep-27 21:42 153 1 gusting 6 11.1
2016-Sep-27 21:37 174 1 gusting 4 11.1
2016-Sep-27 21:32 169 2 gusting 4 11.1
2016-Sep-27 21:27 159 2 gusting 4 10.6
2016-Sep-27 21:22 172 1 gusting 3 10.6
2016-Sep-27 21:17 151 1 gusting 3 10.6
2016-Sep-27 21:12 170 0 gusting 3 10.6
2016-Sep-27 21:07 230 0 gusting 5 10.6
2016-Sep-27 21:02 231 0 gusting 5 10.6
2016-Sep-27 20:57 225 0 gusting 5 10.6
2016-Sep-27 20:52 210 0 gusting 5 10.6
2016-Sep-27 20:47 221 0 gusting 3 10.6
2016-Sep-27 20:42 213 0 gusting 3 10.6
2016-Sep-27 20:37 212 0 gusting 3 10.6
2016-Sep-27 20:32 197 0 gusting 3 10.6
2016-Sep-27 20:27 219 0 gusting 3 10.6
2016-Sep-27 20:22 221 0 gusting 3 10.6
2016-Sep-27 20:17 210 0 gusting 6 10.6
2016-Sep-27 20:12 210 0 gusting 6 10.6
2016-Sep-27 20:07 209 1 gusting 6 10.6
2016-Sep-27 20:02 214 2 gusting 6 10.6
2016-Sep-27 19:57 227 1 gusting 6 10.6
2016-Sep-27 19:52 219 1 gusting 6 10.6
2016-Sep-27 19:47 219 1 gusting 6 10.6
2016-Sep-27 19:42 194 1 gusting 6 10.6
2016-Sep-27 19:37 227 1 gusting 5 10.6
2016-Sep-27 19:32 202 0 gusting 5 10.6
2016-Sep-27 19:27 196 0 gusting 3 10.6
2016-Sep-27 19:22 192 1 gusting 3 10.6
2016-Sep-27 19:17 200 1 gusting 3 10.6
2016-Sep-27 19:12 200 0 gusting 2 10.6
2016-Sep-27 19:07 200 0 gusting 2 10.6
2016-Sep-27 19:02 200 10.6
2016-Sep-27 18:57 200 10.6
2016-Sep-27 18:52 199 10.6
2016-Sep-27 18:47 200 10.6
2016-Sep-27 18:42 200 11.1
2016-Sep-27 18:37 200 11.1
2016-Sep-27 18:32 200 11.1
2016-Sep-27 18:27 200 11.1
2016-Sep-27 18:22 200 11.1
2016-Sep-27 18:17 200 11.1
2016-Sep-27 18:12 200 0 gusting 2 11.1
2016-Sep-27 18:07 200 0 gusting 3 11.1
2016-Sep-27 18:02 200 0 gusting 3 11.1
2016-Sep-27 17:57 200 0 gusting 3 11.1
2016-Sep-27 17:52 199 0 gusting 6 11.1
2016-Sep-27 17:47 212 0 gusting 6 11.1
2016-Sep-27 17:42 213 1 gusting 6 11.1
2016-Sep-27 17:37 207 1 gusting 6 11.1
2016-Sep-27 17:32 196 1 gusting 6 11.1
2016-Sep-27 17:27 194 1 gusting 6 11.1
2016-Sep-27 17:22 182 0 gusting 6 11.1
2016-Sep-27 17:17 201 0 gusting 6 11.1
2016-Sep-27 17:12 138 0 gusting 4 11.1
2016-Sep-27 17:07 207 0 gusting 4 11.1
2016-Sep-27 17:02 180 0 gusting 4 11.1
2016-Sep-27 16:57 165 0 gusting 4 11.1
2016-Sep-27 16:52 167 1 gusting 4 11.1
2016-Sep-27 16:47 163 0 gusting 4 11.1
2016-Sep-27 16:42 163 1 gusting 4 11.1
2016-Sep-27 16:37 186 0 gusting 4 11.7
2016-Sep-27 16:32 185 0 gusting 5 11.7
2016-Sep-27 16:27 172 0 gusting 5 11.7
2016-Sep-27 16:22 165 0 gusting 5 11.7
2016-Sep-27 16:17 155 1 gusting 2 11.7
2016-Sep-27 16:12 161 1 gusting 2 11.7
2016-Sep-27 16:07 167 0 gusting 2 11.7
2016-Sep-27 16:02 165 11.7
2016-Sep-27 15:57 156 12.2
2016-Sep-27 15:52 155 0 gusting 4 12.2
2016-Sep-27 15:47 155 0 gusting 4 12.2
2016-Sep-27 15:42 144 12.2
2016-Sep-27 15:37 144 12.8
2016-Sep-27 15:32 144 0 gusting 4 12.8
2016-Sep-27 15:27 144 1 gusting 4 12.8
2016-Sep-27 15:22 144 0 gusting 4 12.8
2016-Sep-27 15:17 155 0 gusting 4 12.8
2016-Sep-27 15:12 157 1 gusting 4 12.8
2016-Sep-27 15:07 157 1 gusting 4 12.8
2016-Sep-27 15:02 160 1 gusting 4 12.8
2016-Sep-27 14:57 175 1 gusting 4 12.8
2016-Sep-27 14:52 180 1 gusting 4 12.8
2016-Sep-27 14:47 155 1 gusting 6 13.3
2016-Sep-27 14:42 164 2 gusting 6 13.3
2016-Sep-27 14:37 180 3 gusting 6 13.3
2016-Sep-27 14:32 157 3 gusting 6 13.3
2016-Sep-27 14:27 163 4 gusting 6 13.3
2016-Sep-27 14:22 159 3 gusting 6 13.3
2016-Sep-27 14:17 140 2 gusting 3 13.3
2016-Sep-27 14:12 130 2 gusting 3 13.3
2016-Sep-27 14:07 157 1 gusting 3 13.3
2016-Sep-27 14:02 155 0 gusting 3 13.3
2016-Sep-27 13:57 165 1 gusting 3 13.3
2016-Sep-27 13:52 171 1 gusting 3 13.3
2016-Sep-27 13:47 171 1 gusting 3 13.3
2016-Sep-27 13:42 192 1 gusting 3 13.3
2016-Sep-27 13:37 200 0 gusting 4 13.3
2016-Sep-27 13:32 200 1 gusting 4 13.9
2016-Sep-27 13:27 211 0 gusting 4 13.9
2016-Sep-27 13:22 213 0 gusting 4 13.9
2016-Sep-27 13:17 229 13.9
2016-Sep-27 13:12 229 13.9
2016-Sep-27 13:07 228 0 gusting 6 13.9
2016-Sep-27 13:02 253 1 gusting 6 13.9
2016-Sep-27 12:57 235 1 gusting 8 13.9
2016-Sep-27 12:52 214 1 gusting 8 13.9
2016-Sep-27 12:47 294 1 gusting 8 13.9
2016-Sep-27 12:42 262 1 gusting 8 13.9
2016-Sep-27 12:37 207 2 gusting 6 13.9
2016-Sep-27 12:32 208 2 gusting 6 13.9
2016-Sep-27 12:27 230 1 gusting 6 13.9
2016-Sep-27 12:22 213 0 gusting 6 13.9
2016-Sep-27 12:17 212 1 gusting 4 13.9
2016-Sep-27 12:12 220 0 gusting 4 13.9
2016-Sep-27 12:07 222 0 gusting 3 13.9
2016-Sep-27 12:02 241 0 gusting 3 13.9
2016-Sep-27 11:57 240 0 gusting 3 13.9
2016-Sep-27 11:52 217 0 gusting 3 13.9
2016-Sep-27 11:47 221 1 gusting 3 13.9
2016-Sep-27 11:42 237 1 gusting 3 13.9
2016-Sep-27 11:37 244 0 gusting 4 13.9
2016-Sep-27 11:32 184 0 gusting 4 13.3
2016-Sep-27 11:27 161 0 gusting 4 13.3
2016-Sep-27 11:22 184 0 gusting 4 13.3
2016-Sep-27 11:17 184 0 gusting 4 13.3
2016-Sep-27 11:12 165 0 gusting 2 13.3
2016-Sep-27 11:07 180 0 gusting 2 13.3
2016-Sep-27 11:02 182 13.3
2016-Sep-27 10:57 182 13.3
2016-Sep-27 10:52 182 13.3
2016-Sep-27 10:47 182 13.3
2016-Sep-27 10:42 177 13.3
2016-Sep-27 10:37 177 13.3
2016-Sep-27 10:32 176 12.8
2016-Sep-27 10:27 177 12.8
2016-Sep-27 10:22 176 0 gusting 3 12.8
2016-Sep-27 10:17 177 0 gusting 3 12.8
2016-Sep-27 10:12 197 0 gusting 3 12.8
2016-Sep-27 10:07 198 1 gusting 3 12.8
2016-Sep-27 10:02 198 0 gusting 2 12.8
2016-Sep-27 09:57 175 0 gusting 2 12.8
2016-Sep-27 09:52 205 0 gusting 2 12.8
2016-Sep-27 09:47 205 12.8
2016-Sep-27 09:42 205 12.8
2016-Sep-27 09:37 205 12.2
2016-Sep-27 09:32 205 0 gusting 2 12.2
2016-Sep-27 09:27 205 0 gusting 2 12.2
2016-Sep-27 09:22 200 0 gusting 2 12.2
2016-Sep-27 09:17 221 12.2
2016-Sep-27 09:12 222 12.2
2016-Sep-27 09:07 221 0 gusting 5 12.2
2016-Sep-27 09:02 222 1 gusting 5 12.2
2016-Sep-27 08:57 225 0 gusting 5 11.7
2016-Sep-27 08:52 232 0 gusting 5 11.7
2016-Sep-27 08:47 235 0 gusting 5 11.7
2016-Sep-27 08:42 209 0 gusting 5 11.7
2016-Sep-27 08:37 219 1 gusting 4 11.7
2016-Sep-27 08:32 173 0 gusting 4 11.7
2016-Sep-27 08:27 217 11.7
2016-Sep-27 08:22 192 11.7
2016-Sep-27 08:17 192 11.7
2016-Sep-27 08:12 145 0 gusting 5 11.7
2016-Sep-27 08:07 198 1 gusting 6 11.7
2016-Sep-27 08:02 223 1 gusting 6 11.7
2016-Sep-27 07:57 177 1 gusting 6 11.7
2016-Sep-27 07:52 206 1 gusting 6 11.7
2016-Sep-27 07:47 194 1 gusting 6 11.7
2016-Sep-27 07:42 248 0 gusting 6 11.7
2016-Sep-27 07:37 218 0 gusting 4 11.7
2016-Sep-27 07:32 214 0 gusting 4 11.7
2016-Sep-27 07:27 197 0 gusting 3 11.7
2016-Sep-27 07:22 196 0 gusting 3 11.7
2016-Sep-27 07:17 216 0 gusting 3 11.1
2016-Sep-27 07:12 217 0 gusting 1 11.1
2016-Sep-27 07:07 222 11.1
2016-Sep-27 07:02 223 11.1
2016-Sep-27 06:57 223 11.1
2016-Sep-27 06:52 223 11.1
2016-Sep-27 06:47 223 10.6
2016-Sep-27 06:42 223 10.6
2016-Sep-27 06:37 223 10.6
2016-Sep-27 06:32 223 10.6
2016-Sep-27 06:27 223 10.6
2016-Sep-27 06:22 223 10.6
2016-Sep-27 06:17 222 10.0
2016-Sep-27 06:12 223 10.0
2016-Sep-27 06:07 223 10.0
2016-Sep-27 06:02 223 10.0
2016-Sep-27 05:57 223 10.0
2016-Sep-27 05:52 223 10.0
2016-Sep-27 05:47 223 10.0
2016-Sep-27 05:42 222 10.0
2016-Sep-27 05:37 223 10.0
2016-Sep-27 05:32 223 9.4
2016-Sep-27 05:27 223 9.4
2016-Sep-27 05:22 223 9.4
2016-Sep-27 05:17 223 9.4
2016-Sep-27 05:12 223 9.4
2016-Sep-27 05:07 222 9.4
2016-Sep-27 05:02 222 9.4
2016-Sep-27 04:57 223 9.4
2016-Sep-27 04:52 223 9.4
2016-Sep-27 04:47 223 9.4
2016-Sep-27 04:42 223 9.4
2016-Sep-27 04:37 223 9.4
2016-Sep-27 04:32 223 8.9
2016-Sep-27 04:27 223 8.9
2016-Sep-27 04:22 223 8.9
2016-Sep-27 04:17 223 0 gusting 3 8.9
2016-Sep-27 04:12 223 0 gusting 3 8.9
2016-Sep-27 04:07 223 0 gusting 3 8.9
2016-Sep-27 04:02 223 0 gusting 1 8.9
2016-Sep-27 03:57 223 8.3
2016-Sep-27 03:52 223 8.3
2016-Sep-27 03:47 223 8.3
2016-Sep-27 03:42 223 8.3
2016-Sep-27 03:37 223 8.3
2016-Sep-27 03:32 223 8.3
2016-Sep-27 03:27 223 8.3
2016-Sep-27 03:22 223 8.3
2016-Sep-27 03:17 223 0 gusting 2 8.3
2016-Sep-27 03:12 223 0 gusting 2 8.3
2016-Sep-27 03:07 223 8.3
2016-Sep-27 03:02 223 7.8
2016-Sep-27 02:57 223 7.8
2016-Sep-27 02:52 222 7.8
2016-Sep-27 02:47 223 7.8
2016-Sep-27 02:42 223 7.8
2016-Sep-27 02:37 223 7.8
2016-Sep-27 02:32 222 7.8
2016-Sep-27 02:27 223 7.8
2016-Sep-27 02:22 223 7.8
2016-Sep-27 02:17 223 7.8
2016-Sep-27 02:12 223 7.8
2016-Sep-27 02:07 223 7.8
2016-Sep-27 02:02 222 7.8
2016-Sep-27 01:57 222 7.8
2016-Sep-27 01:52 223 7.8
2016-Sep-27 01:47 223 7.8
2016-Sep-27 01:42 222 7.8
2016-Sep-27 01:37 223 7.8
2016-Sep-27 01:32 223 7.8
2016-Sep-27 01:27 222 7.2
2016-Sep-27 01:22 223 7.2
2016-Sep-27 01:17 223 7.2
2016-Sep-27 01:12 223 7.2
2016-Sep-27 01:07 223 7.2
2016-Sep-27 01:02 223 7.2
2016-Sep-27 00:57 223 7.2
2016-Sep-27 00:52 222 7.2
2016-Sep-27 00:47 223 7.2
2016-Sep-27 00:42 223 7.2
2016-Sep-27 00:37 223 7.2
2016-Sep-27 00:32 223 7.2
2016-Sep-27 00:27 223 7.2
2016-Sep-27 00:22 223 7.2
2016-Sep-27 00:17 223 7.2
2016-Sep-27 00:12 223 7.2
2016-Sep-27 00:07 223 7.2
2016-Sep-27 00:02 223 7.2
2016-Sep-26 23:57 222 7.2
2016-Sep-26 23:52 223 7.2
2016-Sep-26 23:47 223 7.2
2016-Sep-26 23:42 223 7.2
2016-Sep-26 23:37 223 7.2
2016-Sep-26 23:32 223 7.2
2016-Sep-26 23:27 223 7.2
2016-Sep-26 23:22 223 7.2
2016-Sep-26 23:17 223 7.8
2016-Sep-26 23:12 223 7.8
2016-Sep-26 23:07 223 7.8
2016-Sep-26 23:02 223 7.8
2016-Sep-26 22:57 223 7.8
2016-Sep-26 22:52 223 7.8
2016-Sep-26 22:47 223 7.8
2016-Sep-26 22:42 223 7.8
2016-Sep-26 22:37 223 8.3
2016-Sep-26 22:32 223 8.3
2016-Sep-26 22:27 223 8.3
2016-Sep-26 22:22 223 8.3
2016-Sep-26 22:17 223 8.3
2016-Sep-26 22:12 223 8.3
2016-Sep-26 22:07 223 8.3
2016-Sep-26 22:02 223 8.3
2016-Sep-26 21:57 223 8.3
2016-Sep-26 21:52 223 8.3
2016-Sep-26 21:47 223 8.3
2016-Sep-26 21:42 222 8.3
2016-Sep-26 21:37 222 8.9
2016-Sep-26 21:32 223 8.9
2016-Sep-26 21:27 223 8.9
2016-Sep-26 21:22 223 8.9
2016-Sep-26 21:17 223 8.9
2016-Sep-26 21:12 223 9.4
2016-Sep-26 21:07 223 9.4
2016-Sep-26 21:02 223 9.4
2016-Sep-26 20:57 222 9.4
2016-Sep-26 20:52 223 9.4
2016-Sep-26 20:47 223 9.4
2016-Sep-26 20:42 223 10.0
2016-Sep-26 20:37 223 10.0
2016-Sep-26 20:32 222 10.0
2016-Sep-26 20:27 223 10.0
2016-Sep-26 20:22 223 10.0
2016-Sep-26 20:17 223 10.0
2016-Sep-26 20:12 223 10.0
2016-Sep-26 20:07 223 10.6
2016-Sep-26 20:02 223 10.6
2016-Sep-26 19:57 223 10.6
2016-Sep-26 19:52 223 10.6
2016-Sep-26 19:47 223 10.6
2016-Sep-26 19:42 222 10.6
2016-Sep-26 19:37 223 10.6
2016-Sep-26 19:32 222 10.6
2016-Sep-26 19:27 223 10.6
2016-Sep-26 19:22 222 10.6
2016-Sep-26 19:17 223 10.6
2016-Sep-26 19:12 222 11.1
2016-Sep-26 19:07 222 11.1
2016-Sep-26 19:02 223 11.1
2016-Sep-26 18:57 223 11.1
2016-Sep-26 18:52 222 11.1
2016-Sep-26 18:47 222 11.1
2016-Sep-26 18:42 223 11.1
2016-Sep-26 18:37 222 11.1
2016-Sep-26 18:32 223 11.7
2016-Sep-26 18:27 223 11.7
2016-Sep-26 18:22 223 11.7
2016-Sep-26 18:17 222 11.7
2016-Sep-26 18:12 222 11.7
2016-Sep-26 18:07 223 11.7
2016-Sep-26 18:02 223 11.7
2016-Sep-26 17:57 223 11.7
2016-Sep-26 17:52 223 12.2
2016-Sep-26 17:47 223 12.2
2016-Sep-26 17:42 222 12.2
2016-Sep-26 17:37 223 12.2
2016-Sep-26 17:32 223 12.2
2016-Sep-26 17:27 222 12.2
2016-Sep-26 17:22 223 12.2
2016-Sep-26 17:17 223 12.8
2016-Sep-26 17:12 223 12.8
2016-Sep-26 17:07 223 12.8
2016-Sep-26 17:02 223 12.8
2016-Sep-26 16:57 223 12.8
2016-Sep-26 16:52 223 12.8
2016-Sep-26 16:47 223 13.3
2016-Sep-26 16:42 222 13.3
2016-Sep-26 16:37 223 13.3
2016-Sep-26 16:32 223 13.3
2016-Sep-26 16:27 223 13.3
2016-Sep-26 16:22 223 13.3
2016-Sep-26 16:17 223 13.3
2016-Sep-26 16:12 222 13.9
2016-Sep-26 16:07 223 13.9
2016-Sep-26 16:02 223 13.9
2016-Sep-26 15:57 223 13.9
2016-Sep-26 15:52 223 14.4
2016-Sep-26 15:47 223 14.4
2016-Sep-26 15:42 223 14.4
2016-Sep-26 15:37 223 14.4
2016-Sep-26 15:32 223 14.4
2016-Sep-26 15:27 223 15.0
2016-Sep-26 15:22 223 15.0
2016-Sep-26 15:17 223 15.0
2016-Sep-26 15:12 223 15.0
2016-Sep-26 15:07 223 15.0
2016-Sep-26 15:02 223 0 gusting 3 15.6
2016-Sep-26 14:57 223 0 gusting 3 15.6
2016-Sep-26 14:52 223 0 gusting 3 15.6
2016-Sep-26 14:47 222 0 gusting 5 15.6
2016-Sep-26 14:42 225 0 gusting 5 15.6
2016-Sep-26 14:37 225 15.6
2016-Sep-26 14:32 225 0 gusting 4 15.6
2016-Sep-26 14:27 225 0 gusting 4 16.1
2016-Sep-26 14:22 202 0 gusting 4 16.1
2016-Sep-26 14:17 181 0 gusting 6 16.1
2016-Sep-26 14:12 240 0 gusting 6 16.1
2016-Sep-26 14:07 240 0 gusting 6 16.1
2016-Sep-26 14:02 216 0 gusting 6 16.1
2016-Sep-26 13:57 215 0 gusting 6 16.1
2016-Sep-26 13:52 232 1 gusting 6 16.1
2016-Sep-26 13:47 221 1 gusting 6 16.7
2016-Sep-26 13:42 216 0 gusting 6 16.7
2016-Sep-26 13:37 229 0 gusting 5 16.7
2016-Sep-26 13:32 198 0 gusting 5 16.7
2016-Sep-26 13:27 198 1 gusting 5 16.7
2016-Sep-26 13:22 198 1 gusting 5 16.7
2016-Sep-26 13:17 197 1 gusting 5 16.7
2016-Sep-26 13:12 207 1 gusting 6 16.7
2016-Sep-26 13:07 251 0 gusting 6 16.7
2016-Sep-26 13:02 233 1 gusting 6 16.7
2016-Sep-26 12:57 200 1 gusting 6 16.7
2016-Sep-26 12:52 217 0 gusting 6 16.7
2016-Sep-26 12:47 178 1 gusting 5 16.7
2016-Sep-26 12:42 225 1 gusting 5 16.7
2016-Sep-26 12:37 234 1 gusting 5 16.7
2016-Sep-26 12:32 220 1 gusting 6 16.7
2016-Sep-26 12:27 197 2 gusting 6 16.7
2016-Sep-26 12:22 213 1 gusting 6 16.7
2016-Sep-26 12:17 202 1 gusting 6 16.7
2016-Sep-26 12:12 212 2 gusting 6 16.7
2016-Sep-26 12:07 216 2 gusting 6 16.7
2016-Sep-26 12:02 216 2 gusting 6 16.7
2016-Sep-26 11:57 207 1 gusting 6 16.7
2016-Sep-26 11:52 248 1 gusting 6 16.1
2016-Sep-26 11:47 211 1 gusting 6 16.1
2016-Sep-26 11:42 209 1 gusting 6 16.1
2016-Sep-26 11:37 206 1 gusting 6 16.1
2016-Sep-26 11:32 221 0 gusting 6 16.1
2016-Sep-26 11:27 212 1 gusting 6 16.1
2016-Sep-26 11:22 183 1 gusting 6 16.1
2016-Sep-26 11:17 207 2 gusting 6 16.1
2016-Sep-26 11:12 157 2 gusting 7 15.6
2016-Sep-26 11:07 203 2 gusting 7 15.6
2016-Sep-26 11:02 191 2 gusting 7 15.6
2016-Sep-26 10:57 222 1 gusting 6 15.6
2016-Sep-26 10:52 200 1 gusting 6 15.6
2016-Sep-26 10:47 227 1 gusting 6 15.6
2016-Sep-26 10:42 192 1 gusting 7 15.6
2016-Sep-26 10:37 249 1 gusting 7 15.6
2016-Sep-26 10:32 176 2 gusting 6 15.6
2016-Sep-26 10:27 217 3 gusting 6 15.6
2016-Sep-26 10:22 238 3 gusting 6 15.6
2016-Sep-26 10:17 166 2 gusting 7 15.6
2016-Sep-26 10:12 256 1 gusting 7 15.6
2016-Sep-26 10:07 205 2 gusting 7 15.6
2016-Sep-26 10:02 217 3 gusting 6 15.6
2016-Sep-26 09:57 219 3 gusting 6 15.6
2016-Sep-26 09:52 196 2 gusting 6 15.6
2016-Sep-26 09:47 190 2 gusting 6 15.0
2016-Sep-26 09:42 201 1 gusting 6 15.0
2016-Sep-26 09:37 208 1 gusting 6 15.0
2016-Sep-26 09:32 202 0 gusting 5 15.0
2016-Sep-26 09:27 198 0 gusting 5 15.0
2016-Sep-26 09:22 198 0 gusting 5 15.0
2016-Sep-26 09:17 233 1 gusting 5 15.0
2016-Sep-26 09:12 215 1 gusting 5 15.0
2016-Sep-26 09:07 198 1 gusting 5 15.0
2016-Sep-26 09:02 218 1 gusting 5 15.0
2016-Sep-26 08:57 228 1 gusting 5 15.0
2016-Sep-26 08:52 184 1 gusting 5 15.0
2016-Sep-26 08:47 210 1 gusting 5 14.4
2016-Sep-26 08:42 209 1 gusting 5 14.4
2016-Sep-26 08:37 195 1 gusting 5 14.4
2016-Sep-26 08:32 192 1 gusting 4 14.4
2016-Sep-26 08:27 192 1 gusting 4 14.4
2016-Sep-26 08:22 165 1 gusting 4 14.4
2016-Sep-26 08:17 209 0 gusting 5 14.4
2016-Sep-26 08:12 173 1 gusting 5 14.4
2016-Sep-26 08:07 191 1 gusting 5 13.9
2016-Sep-26 08:02 209 1 gusting 5 13.9